Theta_e
328 330 329 330 333 331 330 327 321 316 316 319 320 328 329 332 329 326 325 324 324 322 322 322 323 325 325 326 326 327 328 327 328 329 328 326 326 325
329 328 328 330 328 329 328 327 325 320 314 321 321 324 326 326 327 324 324 325 323 322 322 321 321 321 322 323 324 325 324 323 323 323 323 322 321 320
327 327 327 328 329 326 326 326 323 321 316 319 322 324 323 323 324 325 326 325 323 321 322 320 318 318 320 320 321 320 320 319 318 319 319 319 317 316
325 327 326 328 327 328 325 324 322 322 319 315 319 321 322 323 323 323 324 325 323 321 319 318 317 317 315 314 313 313 313 313 314 314 314 314 314 313
325 324 325 326 326 325 325 323 321 321 321 318 318 321 321 322 321 322 320 321 322 320 316 315 314 313 311 310 309 308 307 306 307 308 309 309 309 308
327 324 325 326 325 325 324 323 321 320 320 319 318 317 318 319 320 318 317 320 319 320 315 313 311 309 308 307 307 306 303 302 301 301 302 302 303 303
328 327 326 325 322 324 324 321 321 321 320 318 316 316 316 317 315 315 315 316 315 313 309 308 307 307 306 307 307 305 302 301 300 300 300 298 298 299
324 326 324 321 317 313 316 316 321 321 319 318 317 316 316 316 315 316 315 315 310 314 312 309 309 308 304 301 303 301 300 300 299 299 298 298 297 297
327 328 328 326 323 321 312 312 312 312 316 321 318 318 316 317 317 314 315 316 314 317 313 308 307 301 300 299 300 299 298 298 298 298 297 297 296 296
331 329 328 325 324 325 324 322 323 323 323 323 322 321 321 321 320 316 321 320 318 317 315 306 305 301 300 297 299 298 297 297 297 297 297 296 296 296
331 330 329 326 307 310 324 322 321 320 311 310 308 306 305 310 317 323 319 314 312 313 316 309 305 302 299 297 296 298 297 296 296 296 296 295 295 296
328 321 310 319 307 309 323 321 319 320 321 320 318 312 312 315 310 325 321 314 314 311 316 311 306 305 300 299 295 294 294 297 296 296 295 296 296 299
325 322 316 303 303 306 314 323 320 322 316 323 323 322 323 325 322 326 326 320 317 316 320 317 309 308 310 301 298 296 296 295 294 294 296 296 296 295
325 323 310 301 304 307 316 303 303 314 324 324 324 323 324 323 325 327 327 327 328 325 323 321 313 311 310 304 301 302 302 299 299 298 295 296 296 296
327 309 297 299 299 304 303 302 306 325 325 323 322 323 325 326 325 327 325 324 324 323 325 323 319 315 315 311 303 300 301 302 302 301 301 294 294 295
308 312 310 308 309 311 309 309 326 328 326 325 325 327 325 325 327 325 319 319 313 310 311 311 312 314 310 305 303 301 302 299 301 300 298 297 300 298
321 323 324 320 320 321 323 324 325 327 324 324 323 323 325 326 325 324 319 315 311 307 305 307 305 301 297 301 301 300 299 299 300 298 296 296 297 298
323 324 324 322 319 321 321 322 324 322 325 326 326 324 323 323 322 320 318 314 311 308 304 304 303 300 298 295 296 299 299 299 299 299 297 293 292 293
326 325 324 325 323 321 321 322 322 323 325 323 321 321 320 320 312 317 317 314 312 308 305 304 302 299 295 293 292 291 298 297 296 295 294 294 291 292
326 325 325 325 325 324 323 322 323 323 323 325 323 321 320 319 317 316 316 313 313 311 305 304 302 299 295 295 293 287 288 295 294 292 291 291 291 291
324 325 327 327 327 327 326 325 325 324 323 323 323 322 320 319 317 316 315 305 307 313 306 302 301 294 299 298 291 289 288 290 291 291 288 286 287 288
324 324 323 325 324 324 324 325 325 321 322 324 323 324 322 321 318 318 317 314 312 313 307 299 299 298 296 295 289 289 289 290 290 291 290 290 287 283
321 320 319 319 324 322 321 320 319 320 322 322 323 323 323 321 321 320 318 316 314 311 299 296 295 295 294 294 290 290 290 290 291 288 289 291 291 291
Wind_Speed
4 5 3 3 3 1 4 6 4 5 3 3 2 2 5 9 19 17 20 29 24 23 21 20 14 13 13 12 10 9 9 6 8 8 7 6 6 6
4 5 3 4 4 3 4 6 3 7 4 2 2 2 10 10 18 19 20 23 25 23 19 16 15 15 13 13 10 8 7 8 8 8 8 7 8 8
2 3 5 5 4 5 3 4 7 9 10 4 4 8 14 15 13 16 15 14 12 19 17 17 13 13 12 11 10 9 9 9 10 10 10 11 11 12
5 4 5 2 6 7 6 8 10 10 11 13 9 6 12 17 17 19 11 9 11 16 16 15 13 12 11 12 10 10 10 11 12 13 13 13 13 14
5 3 2 4 8 7 7 9 10 8 10 11 9 8 12 14 16 15 13 13 9 18 15 13 13 13 13 13 13 13 12 12 12 13 13 13 14 15
4 4 2 6 9 9 9 8 12 11 11 10 11 10 10 11 11 12 11 7 7 8 11 10 12 16 16 16 16 15 14 13 12 13 13 12 13 13
6 5 5 9 11 9 9 13 16 12 10 11 11 11 11 10 11 7 10 7 7 5 7 6 7 7 7 11 13 15 13 12 13 12 12 12 12 12
8 8 9 11 12 14 15 14 11 14 13 11 11 10 9 11 10 10 10 10 6 4 7 7 6 6 5 4 12 12 12 12 11 11 11 11 10 10
8 8 9 8 11 13 17 17 16 14 11 14 13 12 14 13 12 9 8 7 7 7 9 7 6 6 4 6 9 11 11 10 10 10 9 9 7 7
7 9 10 11 11 14 14 13 13 10 11 8 11 11 12 10 11 12 7 8 7 7 6 5 3 5 5 4 6 8 9 9 9 8 7 7 6 4
8 10 11 11 13 15 15 13 12 10 10 14 12 12 12 10 6 5 8 10 7 5 4 5 4 4 3 4 4 6 8 8 8 8 8 6 6 8
8 8 13 11 16 13 14 14 13 12 13 12 8 6 6 5 8 3 7 8 8 3 5 5 7 5 3 3 5 4 4 9 9 7 5 2 7 3
8 6 5 12 12 13 13 12 13 13 11 12 9 7 6 5 5 4 5 6 8 4 8 5 6 5 3 5 4 5 6 4 4 4 6 6 6 4
9 7 5 7 10 10 9 16 16 14 10 8 7 7 6 7 6 4 1 2 2 6 11 7 6 6 5 4 4 5 6 5 5 5 5 6 7 3
8 9 9 11 11 8 19 17 17 10 9 8 9 7 7 6 5 5 4 5 5 5 7 5 4 6 6 5 6 5 6 5 5 4 7 5 5 5
11 7 5 6 4 9 7 9 9 10 10 8 8 7 6 5 6 6 4 4 4 3 5 4 2 2 3 3 6 5 4 5 4 3 4 1 2 5
8 4 3 5 5 5 5 9 7 5 9 7 6 7 7 6 5 5 5 4 4 5 3 2 7 8 7 4 4 5 4 3 4 4 3 0 3 3
7 6 6 7 7 7 7 7 7 7 5 7 5 6 6 7 7 6 5 6 5 5 4 3 4 3 3 5 9 4 3 4 3 4 3 2 2 4
6 7 7 7 10 9 8 6 4 4 3 6 7 7 7 8 7 8 7 6 4 5 5 6 5 4 3 3 3 17 3 3 3 3 2 2 2 1
7 8 8 7 6 9 9 9 6 7 5 4 7 8 7 8 6 8 7 6 6 5 5 8 7 5 6 6 6 2 12 4 3 1 1 2 3 10
8 8 6 8 8 7 7 6 7 7 9 6 4 6 6 5 5 7 7 10 10 5 7 8 5 9 8 6 5 4 2 9 6 2 1 2 2 2
8 9 7 4 6 5 4 5 7 6 7 9 8 6 6 8 8 7 8 7 7 7 4 8 6 5 4 4 4 5 3 3 3 3 4 4 3 2
10 10 10 9 5 8 8 7 6 5 5 6 9 8 8 7 7 7 5 7 4 6 11 8 4 4 5 5 5 2 6 3 4 2 3 12 11 9
Wind_Direction
26 24 33 19 25 158 162 167 160 136 103 71 74 15 97 117 132 130 128 124 119 118 122 130 142 130 117 112 106 107 126 133 100 96 88 78 74 69
52 24 33 68 45 26 195 141 149 127 117 85 83 98 112 111 128 125 124 128 123 125 133 126 116 113 115 114 112 108 112 114 106 93 92 92 87 88
42 35 80 101 101 74 48 94 92 104 105 85 84 113 125 122 127 113 115 112 113 122 125 119 122 124 120 122 123 135 126 110 110 107 103 102 97 93
58 44 30 148 102 91 96 100 107 109 113 108 101 96 107 110 108 100 98 94 111 101 103 113 117 122 116 116 118 112 112 106 102 102 96 93 94 90
127 112 36 85 93 102 95 110 114 110 118 119 94 91 95 97 93 95 98 90 91 100 91 96 107 107 107 104 106 106 103 103 97 98 99 96 94 87
129 118 139 112 121 119 112 115 129 119 109 105 102 96 94 97 99 111 105 107 109 98 76 94 97 96 102 106 113 113 106 106 108 104 99 95 92 92
106 91 73 83 96 110 123 120 128 118 120 116 109 108 112 126 118 116 117 109 105 103 112 113 110 100 89 89 107 113 108 106 100 101 105 101 101 104
100 97 99 95 86 84 97 91 121 129 119 119 123 128 123 117 127 133 134 137 126 162 134 122 121 103 86 78 105 109 108 106 111 113 111 117 121 121
115 117 106 105 102 100 93 90 82 82 97 131 128 135 128 142 142 138 155 136 134 152 125 113 108 92 94 97 102 109 111 118 119 121 130 137 141 134
121 119 118 116 119 115 114 104 101 102 110 116 122 135 142 147 145 158 156 115 109 128 134 109 148 115 100 94 116 127 132 131 133 138 153 174 174 187
104 107 117 121 110 116 121 118 107 102 85 101 108 116 127 146 146 142 133 129 133 149 198 113 151 109 144 156 159 167 158 161 164 174 179 184 213 218
87 82 90 128 125 123 128 132 126 132 128 123 117 106 140 169 190 174 148 147 152 145 205 113 143 146 157 152 156 175 189 210 201 202 202 286 318 41
110 102 98 125 136 129 136 144 147 142 135 138 148 158 173 187 206 230 198 159 173 198 169 128 161 187 155 147 177 185 187 178 196 207 230 257 283 41
124 114 116 121 131 127 130 132 137 139 145 151 150 164 180 191 206 195 184 54 253 197 164 140 150 172 163 170 167 168 194 173 184 189 188 203 215 99
112 100 122 125 128 113 134 149 152 156 162 165 173 176 192 180 167 122 99 91 54 79 135 138 135 189 181 180 161 168 140 192 184 193 164 169 172 175
110 119 119 110 99 111 131 155 175 163 168 174 177 178 173 163 150 143 149 147 104 59 31 40 75 106 200 133 132 146 167 173 170 151 116 321 260 167
120 123 143 119 123 148 163 182 217 189 173 171 162 169 151 153 161 159 164 172 165 160 167 83 60 68 56 44 108 151 156 116 118 124 98 339 34 124
150 165 169 157 158 170 185 205 219 208 183 165 152 149 155 169 182 173 181 183 170 167 155 144 125 76 52 64 58 129 108 115 124 129 105 104 299 88
177 182 184 188 175 180 191 210 170 181 185 158 158 170 175 188 181 182 193 179 181 173 164 149 153 151 158 159 59 39 68 76 66 48 81 87 143 295
214 192 195 200 202 184 192 191 189 175 198 199 170 180 184 186 182 185 190 189 197 164 164 164 166 165 165 180 147 94 10 75 80 71 348 3 254 108
223 233 221 195 201 201 195 195 184 186 186 196 200 186 187 190 190 193 195 198 191 188 176 167 168 131 126 114 82 128 53 62 97 148 201 237 259 230
214 228 250 220 191 198 210 197 196 187 186 192 202 196 190 201 208 203 201 203 199 199 123 128 134 114 96 109 134 134 139 192 162 182 242 224 184 233
206 210 221 240 230 197 200 205 210 202 196 192 196 203 203 204 203 212 204 196 190 160 136 129 116 83 85 108 106 119 125 151 155 194 267 217 239 256